DLH9HE EDDM-EDDB

Flight info

Callsign DLH9HE
Flight time 0h 48m
Altitude 28000
Route AKINI1S AKINI Y104 MAMOR L132 RUDNO/N0473F300 T203 TIVDA/N0471F290 DCT ETVIS DCT NAVEK DCT GAVLI/N0472F300 T203 ATGUP ATGUP1R
Aircraft A359/H-SDE2E3GHIJ3J4J5LM1ORWXY/LB1D1

Departure

Time 2026-05-05 19:11
Airport Munich Airport (EDDM)

Arrival

Time 2026-05-05 20:00
Airport Berlin Brandenburg Airport (EDDB)
Time Latitude Longitude Altitude Speed Heading
2026-05-05 18:42 48.35307 11.79353 1476 ft 0 kts 262°
2026-05-05 18:58 48.35308 11.79365 1476 ft 4 kts 263°
2026-05-05 18:58 48.35312 11.79406 1478 ft 4 kts 263°
2026-05-05 18:58 48.35315 11.79442 1476 ft 4 kts 270°
2026-05-05 18:59 48.35308 11.79473 1476 ft 4 kts 330°
2026-05-05 18:59 48.35283 11.79484 1482 ft 4 kts 354°
2026-05-05 18:59 48.35271 11.79485 1476 ft 1 kts 353°
2026-05-05 18:59 48.35271 11.79486 1492 ft 0 kts 353°
2026-05-05 19:02 48.35297 11.79480 1476 ft 11 kts 350°
2026-05-05 19:02 48.35441 11.79452 1483 ft 30 kts 353°
2026-05-05 19:02 48.35649 11.79420 1488 ft 25 kts 354°
2026-05-05 19:03 48.35771 11.79430 1476 ft 10 kts 46°
2026-05-05 19:03 48.35811 11.79508 1476 ft 9 kts 36°
2026-05-05 19:03 48.35873 11.79517 1484 ft 10 kts 353°
2026-05-05 19:03 48.35957 11.79502 1479 ft 14 kts 353°
2026-05-05 19:04 48.35989 11.79496 1490 ft 0 kts 353°
2026-05-05 19:05 48.36008 11.79493 1477 ft 8 kts 353°
2026-05-05 19:05 48.36110 11.79475 1482 ft 20 kts 353°
2026-05-05 19:05 48.36207 11.79505 1478 ft 9 kts 53°
2026-05-05 19:05 48.36226 11.79616 1478 ft 14 kts 84°
2026-05-05 19:06 48.36239 11.79801 1479 ft 20 kts 84°
2026-05-05 19:06 48.36256 11.80041 1492 ft 25 kts 84°
2026-05-05 19:06 48.36279 11.80324 1478 ft 30 kts 82°
2026-05-05 19:06 48.36306 11.80652 1481 ft 33 kts 83°
2026-05-05 19:07 48.36334 11.81011 1483 ft 36 kts 84°
2026-05-05 19:07 48.36361 11.81396 1484 ft 38 kts 83°
2026-05-05 19:07 48.36391 11.81784 1478 ft 28 kts 83°
2026-05-05 19:07 48.36414 11.81986 1476 ft 9 kts 43°
2026-05-05 19:08 48.36430 11.81998 1486 ft 0 kts 25°
2026-05-05 19:08 48.36431 11.81998 1492 ft 0 kts 25°
2026-05-05 19:08 48.36449 11.81999 1476 ft 7 kts
2026-05-05 19:08 48.36470 11.81998 1478 ft 0 kts 357°
2026-05-05 19:09 48.36483 11.81996 1479 ft 9 kts 354°
2026-05-05 19:10 48.36629 11.81958 1476 ft 30 kts 328°
2026-05-05 19:10 48.36661 11.81759 1484 ft 0 kts 261°
2026-05-05 19:10 48.36660 11.81749 1492 ft 9 kts 261°
2026-05-05 19:11 48.36613 11.81201 1486 ft 105 kts 263°
2026-05-05 19:11 48.36493 11.79603 1569 ft 194 kts 264°
2026-05-05 19:11 48.36300 11.77374 2334 ft 232 kts 264°
2026-05-05 19:11 48.36116 11.74885 3730 ft 248 kts 265°
2026-05-05 19:12 48.35933 11.72392 5285 ft 212 kts 264°
2026-05-05 19:12 48.35822 11.70370 6213 ft 186 kts 269°
2026-05-05 19:12 48.36018 11.68477 6740 ft 184 kts 287°
2026-05-05 19:12 48.36662 11.66811 6967 ft 187 kts 308°
2026-05-05 19:13 48.37711 11.65625 6883 ft 192 kts 331°
2026-05-05 19:13 48.39011 11.65051 6837 ft 197 kts 344°
2026-05-05 19:13 48.40347 11.64675 6831 ft 199 kts 345°
2026-05-05 19:13 48.41706 11.64296 6830 ft 199 kts 345°
2026-05-05 19:14 48.43062 11.63909 6830 ft 199 kts 345°
2026-05-05 19:14 48.44418 11.63668 7106 ft 196 kts 353°
2026-05-05 19:14 48.45807 11.63935 7640 ft 209 kts 15°
2026-05-05 19:14 48.47160 11.64793 8556 ft 212 kts 23°
2026-05-05 19:15 48.48466 11.65890 9518 ft 216 kts 28°
2026-05-05 19:15 48.49749 11.67138 10350 ft 223 kts 32°
2026-05-05 19:15 48.51041 11.68485 11180 ft 228 kts 33°
2026-05-05 19:15 48.52340 11.69868 12076 ft 229 kts 33°
2026-05-05 19:16 48.53654 11.71262 12967 ft 232 kts 33°
2026-05-05 19:16 48.54988 11.72658 13834 ft 235 kts 33°
2026-05-05 19:16 48.56339 11.74055 14658 ft 238 kts 33°
2026-05-05 19:16 48.57713 11.75462 15490 ft 241 kts 33°
2026-05-05 19:17 48.59111 11.76886 16315 ft 244 kts 33°
2026-05-05 19:17 48.60529 11.78329 17127 ft 247 kts 33°
2026-05-05 19:17 48.61967 11.79792 17944 ft 250 kts 33°
2026-05-05 19:17 48.63424 11.81276 18659 ft 255 kts 33°
2026-05-05 19:18 48.64907 11.82788 19348 ft 260 kts 34°
2026-05-05 19:18 48.66421 11.84334 20069 ft 264 kts 34°
2026-05-05 19:18 48.67954 11.85902 20788 ft 268 kts 34°
2026-05-05 19:18 48.69512 11.87495 21504 ft 272 kts 35°
2026-05-05 19:19 48.71089 11.89109 22250 ft 275 kts 35°
2026-05-05 19:19 48.72687 11.90747 22952 ft 279 kts 35°
2026-05-05 19:19 48.74307 11.92411 23581 ft 283 kts 35°
2026-05-05 19:19 48.75946 11.94095 24126 ft 287 kts 35°
2026-05-05 19:20 48.77608 11.95803 24650 ft 291 kts 35°
2026-05-05 19:20 48.79295 11.97538 25203 ft 295 kts 36°
2026-05-05 19:20 48.80979 11.99271 25713 ft 298 kts 36°
2026-05-05 19:20 48.82704 12.01047 26234 ft 302 kts 36°
2026-05-05 19:21 48.84459 12.02856 26719 ft 306 kts 36°
2026-05-05 19:21 48.86214 12.04666 27196 ft 310 kts 36°
2026-05-05 19:21 48.88011 12.06522 27660 ft 315 kts 36°
2026-05-05 19:21 48.89841 12.08413 27812 ft 324 kts 36°
2026-05-05 19:22 48.91764 12.10406 27848 ft 344 kts 36°
2026-05-05 19:22 48.93803 12.12523 27831 ft 366 kts 36°
2026-05-05 19:22 48.95970 12.14773 27827 ft 388 kts 36°
2026-05-05 19:22 48.98265 12.17157 27825 ft 410 kts 36°
2026-05-05 19:23 49.00675 12.19660 27822 ft 431 kts 36°
2026-05-05 19:23 49.03216 12.22301 27824 ft 452 kts 36°
2026-05-05 19:23 49.05868 12.25061 27810 ft 472 kts 36°
2026-05-05 19:23 49.08633 12.27940 27805 ft 485 kts 36°
2026-05-05 19:24 49.11418 12.30842 27809 ft 485 kts 36°
2026-05-05 19:24 49.14203 12.33748 27805 ft 483 kts 36°
2026-05-05 19:24 49.16977 12.36649 27802 ft 482 kts 36°
2026-05-05 19:24 49.19711 12.39513 27805 ft 482 kts 36°
2026-05-05 19:25 49.22476 12.42417 27798 ft 482 kts 36°
2026-05-05 19:25 49.25248 12.45332 27800 ft 482 kts 36°
2026-05-05 19:25 49.28011 12.48242 27800 ft 482 kts 36°
2026-05-05 19:25 49.30774 12.51154 27795 ft 482 kts 37°
2026-05-05 19:26 49.33529 12.54063 27793 ft 480 kts 37°
2026-05-05 19:26 49.36261 12.57009 27788 ft 480 kts 38°
2026-05-05 19:26 49.38946 12.60066 27789 ft 481 kts 39°
2026-05-05 19:26 49.41610 12.63172 27787 ft 482 kts 39°
2026-05-05 19:27 49.44431 12.65967 27794 ft 484 kts 30°
2026-05-05 19:27 49.47417 12.68408 27787 ft 484 kts 28°
2026-05-05 19:27 49.50429 12.70732 27782 ft 484 kts 27°
2026-05-05 19:27 49.53448 12.72982 27788 ft 482 kts 26°
2026-05-05 19:28 49.56509 12.74915 27788 ft 482 kts 19°
2026-05-05 19:28 49.59761 12.76443 27786 ft 482 kts 16°
2026-05-05 19:28 49.62994 12.77839 27780 ft 482 kts 16°
2026-05-05 19:28 49.66185 12.79192 27782 ft 482 kts 15°
2026-05-05 19:29 49.69465 12.80575 27782 ft 482 kts 15°
2026-05-05 19:29 49.72697 12.81937 27776 ft 481 kts 15°
2026-05-05 19:29 49.75887 12.83280 27780 ft 480 kts 15°
2026-05-05 19:29 49.79106 12.84636 27779 ft 479 kts 15°
2026-05-05 19:30 49.82364 12.86010 27781 ft 479 kts 15°
2026-05-05 19:30 49.85581 12.87368 27779 ft 479 kts 15°
2026-05-05 19:30 49.88760 12.88711 27776 ft 479 kts 15°
2026-05-05 19:30 49.91982 12.90075 27778 ft 479 kts 15°
2026-05-05 19:31 49.95201 12.91440 27800 ft 479 kts 15°
2026-05-05 19:31 49.98416 12.92805 27802 ft 479 kts 15°
2026-05-05 19:31 50.01636 12.94173 27809 ft 479 kts 15°
2026-05-05 19:31 50.04855 12.95543 27815 ft 479 kts 15°
2026-05-05 19:32 50.08072 12.96914 27822 ft 479 kts 15°
2026-05-05 19:32 50.11288 12.98286 27826 ft 479 kts 15°
2026-05-05 19:32 50.14508 12.99662 27829 ft 479 kts 15°
2026-05-05 19:32 50.17721 13.01038 27829 ft 480 kts 14°
2026-05-05 19:33 50.20958 13.02424 27830 ft 482 kts 14°
2026-05-05 19:33 50.24197 13.03814 27828 ft 482 kts 14°
2026-05-05 19:33 50.27433 13.05205 27825 ft 483 kts 14°
2026-05-05 19:33 50.30675 13.06599 27818 ft 483 kts 14°
2026-05-05 19:34 50.33920 13.07998 27807 ft 483 kts 14°
2026-05-05 19:34 50.37115 13.09373 27803 ft 483 kts 14°
2026-05-05 19:34 50.40355 13.10774 27795 ft 483 kts 14°
2026-05-05 19:35 50.46838 13.13584 27766 ft 483 kts 14°
2026-05-05 19:35 50.50075 13.14989 27765 ft 483 kts 14°
2026-05-05 19:35 50.53314 13.16397 27764 ft 483 kts 14°
2026-05-05 19:35 50.56549 13.17807 27767 ft 482 kts 14°
2026-05-05 19:36 50.59785 13.19218 27767 ft 483 kts 14°
2026-05-05 19:36 50.63024 13.20631 27765 ft 484 kts 14°
2026-05-05 19:36 50.66277 13.22053 27767 ft 484 kts 14°
2026-05-05 19:36 50.69528 13.23476 27767 ft 484 kts 14°
2026-05-05 19:37 50.72731 13.24880 27770 ft 484 kts 14°
2026-05-05 19:37 50.75981 13.26307 27771 ft 484 kts 14°
2026-05-05 19:37 50.79230 13.27736 27774 ft 484 kts 14°
2026-05-05 19:37 50.82474 13.29164 27774 ft 484 kts 14°
2026-05-05 19:38 50.85726 13.30598 27775 ft 484 kts 14°
2026-05-05 19:38 50.88976 13.32033 27781 ft 484 kts 14°
2026-05-05 19:38 50.92220 13.33468 27780 ft 484 kts 14°
2026-05-05 19:38 50.95468 13.34906 27783 ft 484 kts 14°
2026-05-05 19:39 50.98758 13.36082 27782 ft 483 kts
2026-05-05 19:39 51.02097 13.36430 27781 ft 480 kts 356°
2026-05-05 19:39 51.05427 13.36111 27778 ft 479 kts 352°
2026-05-05 19:39 51.08727 13.35497 27780 ft 478 kts 349°
2026-05-05 19:40 51.12018 13.34726 27757 ft 476 kts 348°
2026-05-05 19:40 51.15260 13.33909 27172 ft 470 kts 348°
2026-05-05 19:40 51.18471 13.33086 26089 ft 476 kts 348°
2026-05-05 19:40 51.21755 13.32255 25191 ft 478 kts 348°
2026-05-05 19:41 51.25030 13.31449 24463 ft 475 kts 349°
2026-05-05 19:41 51.28286 13.30664 23765 ft 471 kts 349°
2026-05-05 19:41 51.31495 13.29893 23334 ft 461 kts 349°
2026-05-05 19:41 51.34624 13.29142 22989 ft 447 kts 349°
2026-05-05 19:42 51.37658 13.28414 22680 ft 434 kts 349°
2026-05-05 19:42 51.40601 13.27722 22387 ft 422 kts 349°
2026-05-05 19:42 51.43466 13.27049 22106 ft 410 kts 349°
2026-05-05 19:42 51.46243 13.26392 21842 ft 398 kts 349°
2026-05-05 19:43 51.48952 13.25748 21599 ft 387 kts 349°
2026-05-05 19:43 51.51577 13.25122 21371 ft 376 kts 349°
2026-05-05 19:43 51.54127 13.24513 21141 ft 365 kts 349°
2026-05-05 19:43 51.56608 13.23920 20947 ft 355 kts 349°
2026-05-05 19:44 51.59011 13.23346 20775 ft 344 kts 348°
2026-05-05 19:44 51.61376 13.22778 20345 ft 343 kts 349°
2026-05-05 19:44 51.63736 13.22207 19856 ft 343 kts 349°
2026-05-05 19:44 51.66100 13.21634 19363 ft 344 kts 349°
2026-05-05 19:45 51.68468 13.21062 18896 ft 344 kts 349°
2026-05-05 19:45 51.70833 13.20491 18421 ft 344 kts 349°
2026-05-05 19:45 51.72398 13.20113 18108 ft 344 kts 349°
2026-05-05 19:45 51.74766 13.19543 17603 ft 343 kts 349°
2026-05-05 19:46 51.77126 13.18975 17076 ft 343 kts 349°
2026-05-05 19:46 51.80250 13.18222 16400 ft 342 kts 349°
2026-05-05 19:46 51.81834 13.17840 16056 ft 341 kts 349°
2026-05-05 19:46 51.84177 13.17274 15554 ft 339 kts 349°
2026-05-05 19:47 51.86508 13.16709 15058 ft 338 kts 349°
2026-05-05 19:47 51.88823 13.16148 14561 ft 336 kts 349°
2026-05-05 19:47 51.91131 13.15588 14098 ft 334 kts 349°
2026-05-05 19:47 51.93395 13.15038 13634 ft 332 kts 349°
2026-05-05 19:48 51.95675 13.14484 13099 ft 330 kts 350°
2026-05-05 19:48 51.97939 13.13902 12572 ft 327 kts 347°
2026-05-05 19:48 52.00093 13.12916 12314 ft 316 kts 339°
2026-05-05 19:48 52.02126 13.11724 12098 ft 304 kts 338°
2026-05-05 19:49 52.04074 13.10550 11912 ft 293 kts 338°
2026-05-05 19:49 52.05955 13.09426 11734 ft 283 kts 338°
2026-05-05 19:49 52.07767 13.08344 11567 ft 273 kts 338°
2026-05-05 19:49 52.09517 13.07287 11403 ft 263 kts 338°
2026-05-05 19:50 52.11209 13.06302 11250 ft 254 kts 337°
2026-05-05 19:50 52.12868 13.05441 11112 ft 245 kts 338°
2026-05-05 19:50 52.14470 13.04630 10928 ft 239 kts 338°
2026-05-05 19:50 52.16072 13.03819 10458 ft 245 kts 338°
2026-05-05 19:51 52.17753 13.02950 9687 ft 263 kts 338°
2026-05-05 19:51 52.19573 13.01975 8571 ft 288 kts 338°
2026-05-05 19:51 52.21518 13.00892 7673 ft 301 kts 338°
2026-05-05 19:51 52.23523 12.99745 6732 ft 312 kts 338°
2026-05-05 19:52 52.25621 12.98512 5425 ft 329 kts 338°
2026-05-05 19:52 52.27823 12.97180 4202 ft 343 kts 338°
2026-05-05 19:52 52.30098 12.96279 3487 ft 339 kts 355°
2026-05-05 19:52 52.32372 12.96782 3147 ft 323 kts 19°
2026-05-05 19:53 52.34210 12.98613 3063 ft 299 kts 44°
2026-05-05 19:53 52.35309 13.01294 3063 ft 274 kts 71°
2026-05-05 19:53 52.35528 13.04214 3060 ft 249 kts 99°
2026-05-05 19:53 52.34905 13.06678 3061 ft 225 kts 130°
2026-05-05 19:54 52.33715 13.08106 3065 ft 206 kts 158°
2026-05-05 19:54 52.32375 13.08876 3069 ft 204 kts 164°
2026-05-05 19:54 52.31016 13.09538 3069 ft 204 kts 165°
2026-05-05 19:54 52.29659 13.10214 3068 ft 204 kts 161°
2026-05-05 19:55 52.28527 13.11589 3070 ft 207 kts 127°
2026-05-05 19:55 52.28012 13.13779 3084 ft 209 kts 103°
2026-05-05 19:55 52.27912 13.16158 3078 ft 213 kts 86°
2026-05-05 19:55 52.28073 13.18560 3092 ft 212 kts 84°
2026-05-05 19:56 52.28428 13.20902 3087 ft 213 kts 73°
2026-05-05 19:56 52.28947 13.23170 3087 ft 213 kts 70°
2026-05-05 19:56 52.29464 13.25444 2945 ft 213 kts 71°
2026-05-05 19:56 52.29989 13.27672 2663 ft 207 kts 70°
2026-05-05 19:57 52.30505 13.29833 2376 ft 201 kts 71°
2026-05-05 19:57 52.30995 13.31901 2109 ft 194 kts 71°
2026-05-05 19:57 52.31471 13.33903 1852 ft 181 kts 71°
2026-05-05 19:57 52.31914 13.35771 1640 ft 176 kts 72°
2026-05-05 19:58 52.32355 13.37630 1383 ft 175 kts 71°
2026-05-05 19:58 52.32795 13.39483 1150 ft 174 kts 71°
2026-05-05 19:58 52.33230 13.41318 909 ft 171 kts 70°
2026-05-05 19:58 52.33645 13.43065 681 ft 161 kts 68°
2026-05-05 19:59 52.34032 13.44695 470 ft 147 kts 67°
2026-05-05 19:59 52.34390 13.46196 294 ft 139 kts 67°
2026-05-05 19:59 52.34735 13.47651 164 ft 132 kts 69°
2026-05-05 19:59 52.35044 13.48949 161 ft 109 kts 69°
2026-05-05 20:00 52.35244 13.49788 161 ft 35 kts 65°
2026-05-05 20:00 52.35293 13.49944 163 ft 10 kts 67°
2026-05-05 20:00 52.35315 13.50078 161 ft 14 kts 81°
2026-05-05 20:00 52.35340 13.50221 161 ft 13 kts 63°
2026-05-05 20:01 52.35393 13.50389 161 ft 21 kts 60°
2026-05-05 20:01 52.35509 13.50596 161 ft 27 kts 38°
2026-05-05 20:01 52.35640 13.50765 161 ft 15 kts 39°
2026-05-05 20:01 52.35674 13.50809 161 ft 0 kts 38°
2026-05-05 20:02 52.35683 13.50821 161 ft 6 kts 38°
2026-05-05 20:02 52.35741 13.50842 161 ft 12 kts 359°
2026-05-05 20:02 52.35837 13.50787 161 ft 17 kts 334°
2026-05-05 20:03 52.35968 13.50700 161 ft 23 kts 339°
2026-05-05 20:03 52.36135 13.50593 161 ft 28 kts 339°
2026-05-05 20:03 52.36314 13.50484 162 ft 23 kts 339°
2026-05-05 20:03 52.36393 13.50460 161 ft 6 kts 33°
2026-05-05 20:04 52.36420 13.50521 161 ft 7 kts 68°
2026-05-05 20:04 52.36425 13.50540 161 ft 0 kts 68°
2026-05-05 20:04 52.36426 13.50544 161 ft 0 kts 68°